Погода в Багратионовске

Россия / Калининградская область     54°23′11″N   20°38′22″E
темп.,
°C
ветер,
м/с
пор.,
м/с
влажн.,
%
обл.,
%
осадки,
мм/ч
давл.,
гПа
погр.,
м
22 сентября, ср
ср2223:00+8сз238364 0.1 102249
02:00+6всв118847 0.1 102211
05:00+7ссв117938 0.0 102235
08:00+7ссз14785 0.0 1023137
11:00+13с584836 0.0 10221746
14:00+14с6748100 0.0 10221733
17:00+12с4663100 0.0 10221167
20:00+8сз2285100 0.0 102113
23 сентября, чт
чт2323:00+8з2389100 0.0 102045
02:00+9юз3783100 0.0 1018187
05:00+9ююз498890 0.3 1015254
08:00+10юз5118997 0.3 1012319
11:00+14зюз5876100 0.0 1010755
14:00+15зюз71070100 0.1 10071163
17:00+14юз71379100 0.3 1002917
20:00+13юз91890100 2.5 9981310
24 сентября, пт
пт2423:00+12з111884100 3.1 9951379
02:00+10з101776100 4.1 9951646
05:00+11зсз101773100 0.2 9961535
08:00+12зсз9176684 0.2 9981750
11:00+15сз9175855 0.1 10011837
14:00+15зсз91657100 0.1 10031871
17:00+13зсз8137299 0.3 10051288
20:00+13зсз71267100 0.3 10071355
25 сентября, сб
сб2523:00+12з61290100 0.4 10071012
02:00+13з71492100 2.8 10051031
05:00+13зюз71484100 0.0 1006974
08:00+14з81385100 0.2 1007992
11:00+15з8138033 0.3 10091236
14:00+17зсз8147113 0.6 10101387
17:00+15зсз7137670 0.1 10131229
20:00+13зсз5118211 0.1 1015727
26 сентября, вс
вс2623:00+12з39904 0.0 1016251
02:00+11з36941 0.0 1018117
05:00+10з22955 0.0 102029
08:00+12з11895 0.0 102153
11:00+17вюв21645 0.0 1022758
14:00+18вюв22525 0.0 10231123
17:00+17в346031 0.0 1023208
20:00+11в387759 0.0 1024139